STARLINK-32037, 60283

Orbit data source: Space-Track

STARLINK-32037, 60283 is a payload satellite owned by SpaceX/Seattle (US) in LEO that was launched on Sun, 28 Jul 2024 UTC via an FALCON 9 launch vehicle from the Air Force Eastern Test Range (AFETR). Payload-class satellites include a variety of spacecraft equipped with specific instruments for various scientific and technological missions. These include communications satellites like Starlink; space stations such as the ISS; scientific satellites like the Hubble; Earth observation satellites from companies like Planet Labs, Umbra, and HawkEye 360; GPS; miniature CubeSats for education and research; and military/defense satellites.

Loading next visibility...
Identifier
60283, 2024-132F
Orbit
LEO
Country
Flag of USUS
Related business
Manufacturer
SpaceX/Seattle
Mission
Operational Commercial Communications
Bus & Motor
STARLINK V2M, Unknown motor
Mass
730 kg wet, ~700 kg dry
Launch date (UTC)
2024-07-28 (1 year ago)
Launch vehicle
FALCON 9
Launch site
Air Force Eastern Test Range (AFETR)
Object type
Payload
Rocket body
Debris
Shape & HBR
Box + 2 Pan, 17.7 m
Radar Cross Section
33.884 m², Large (>1 m²)

Expand to show TLE details & history
Last TLE update: 9 hours ago

TLE from 9 hours ago
0 STARLINK-32037
1 60283U 24132F   25303.28607688  .00001541  00000-0  64147-4 0  9996
2 60283  53.1605 298.2391 0001375  78.2516 281.8639 15.30205260 71593
Epoch: 2025-10-30T06:51Z
TLE epoch observation values (Epoch: 2025-10-30T06:51:57.042Z)
Latitude
-0.00002°
Longitude
156.40437°
Altitude
475.906 km
Speed
7.629 km/s
True Right ascension
19h 52m 57s
True Declination
0° 00' 00"
Sunlit
Object was in daylight at epoch
Visualization orbit readout
Latitude
Unknown
Longitude
Unknown
Altitude
Unknown
Speed
Unknown
Apparent Right ascension
Unknown
Apparent Declination
Unknown
Sunlit
N/A
Visualization observer readout
Local Sidereal Time
11:50:01
Azimuth
Unknown
Elevation
Unknown
Doppler factor
Unknown
Orbital elements
Apogee altitude
476.398 km
Perigee altitude
474.513 km
Semi-major axis
6,853.593 km
Eccentricity
0.00014
Inclination
53.1605°
RAAN
298.2391°
Arg. of periapsis
78.2516°
True anomaly
281.84848°
Mean anomaly
281.8639°
Eccentric anomaly
281.85619°
Mean motion
3.8253 °/min
Orbital period
94.11 mins
BSTAR
0.000064147
Loading maneuver chart data...
Computing Atmospheric mass density...
Loading historical data...
Loading historical data...
Loading historical data...
Loading historical data...
Loading historical data...
Loading historical data...
Loading historical data...

Documentation

Showing up to 5 results
|